When you browse on this site, cookies collect data to enhance your experience and personalize the content and advertising you see.
Visit our Privacy Policy to learn more. By continuing to use the site, you agree to this use of cookies and data.

Hourly Weather Kangalassy

Today, 3 July, Friday

Time Temperature Precipitation Wind Pressure Humidity
00:00 +20°C° 0 mm 4 mps 732 mmHg 44%
01:00 +19°C° 0 mm 4 mps 732 mmHg 46%
02:00 +18°C° 0 mm 4 mps 731 mmHg 49%
03:00 +17°C° 0 mm 4 mps 731 mmHg 50%
04:00 +18°C° 0 mm 4 mps 731 mmHg 49%
05:00 +17°C° 0 mm 5 mps 731 mmHg 48%
06:00 +19°C° 0 mm 6 mps 731 mmHg 47%
07:00 +19°C° 0 mm 6 mps 731 mmHg 46%
08:00 +20°C° 0 mm 7 mps 731 mmHg 45%
09:00 +21°C° 0 mm 7 mps 730 mmHg 47%
10:00 +21°C° 0.2 mm 7 mps 730 mmHg 47%
11:00 +22°C° 0.2 mm 7 mps 730 mmHg 48%
12:00 +22°C° 0.2 mm 7 mps 730 mmHg 48%
13:00 +22°C° 0.2 mm 7 mps 730 mmHg 47%
14:00 +22°C° 0.2 mm 6 mps 730 mmHg 47%
15:00 +23°C° 0 mm 6 mps 730 mmHg 40%
16:00 +22°C° 0 mm 6 mps 730 mmHg 42%
17:00 +22°C° 0 mm 6 mps 730 mmHg 45%
18:00 +21°C° 0 mm 6 mps 730 mmHg 47%
19:00 +20°C° 0 mm 6 mps 730 mmHg 51%
20:00 +17°C° 0 mm 5 mps 730 mmHg 56%
21:00 +16°C° 0 mm 5 mps 730 mmHg 61%
22:00 +15°C° 0 mm 4 mps 729 mmHg 63%
23:00 +14°C° 0 mm 4 mps 729 mmHg 64%

Tomorrow, 4 July, Saturday

Time Temperature Precipitation Wind Pressure Humidity
00:00 +13°C° 0 mm 3 mps 729 mmHg 66%
01:00 +12°C° 0 mm 3 mps 729 mmHg 71%
02:00 +11°C° 0 mm 3 mps 729 mmHg 75%
03:00 +12°C° 0 mm 2 mps 729 mmHg 80%
04:00 +12°C° 0.2 mm 2 mps 729 mmHg 81%
05:00 +13°C° 0.2 mm 2 mps 729 mmHg 81%
06:00 +13°C° 0.2 mm 2 mps 729 mmHg 82%
07:00 +15°C° 0.1 mm 2 mps 729 mmHg 75%
08:00 +17°C° 0.1 mm 2 mps 729 mmHg 67%
09:00 +20°C° 0.1 mm 1 mps 729 mmHg 60%
10:00 +20°C° 0.7 mm 2 mps 729 mmHg 57%
11:00 +21°C° 0.7 mm 2 mps 729 mmHg 53%
12:00 +21°C° 0.7 mm 2 mps 728 mmHg 50%
13:00 +22°C° 0.1 mm 3 mps 728 mmHg 46%
14:00 +22°C° 0.1 mm 3 mps 728 mmHg 43%
15:00 +22°C° 0.1 mm 3 mps 728 mmHg 39%
16:00 +22°C° 0 mm 3 mps 728 mmHg 38%
17:00 +22°C° 0 mm 3 mps 728 mmHg 38%
18:00 +24°C° 0 mm 3 mps 728 mmHg 37%
19:00 +21°C° 0 mm 3 mps 728 mmHg 40%
20:00 +20°C° 0 mm 3 mps 729 mmHg 44%
21:00 +19°C° 0 mm 3 mps 729 mmHg 47%
22:00 +17°C° 0 mm 3 mps 729 mmHg 50%
23:00 +16°C° 0 mm 2 mps 729 mmHg 53%

Day after tomorrow, 5 July, Sunday

Time Temperature Precipitation Wind Pressure Humidity
00:00 +15°C° 0 mm 2 mps 729 mmHg 55%
01:00 +14°C° 0 mm 2 mps 729 mmHg 58%
02:00 +13°C° 0 mm 2 mps 729 mmHg 60%
03:00 +12°C° 0 mm 2 mps 729 mmHg 63%
04:00 +13°C° 0 mm 2 mps 729 mmHg 62%
05:00 +13°C° 0 mm 2 mps 729 mmHg 61%
06:00 +14°C° 0 mm 2 mps 729 mmHg 59%
07:00 +15°C° 0 mm 2 mps 729 mmHg 54%
08:00 +17°C° 0 mm 2 mps 729 mmHg 49%
09:00 +19°C° 0 mm 2 mps 730 mmHg 44%
10:00 +20°C° 0 mm 2 mps 730 mmHg 42%
11:00 +20°C° 0 mm 3 mps 729 mmHg 40%
12:00 +21°C° 0 mm 3 mps 729 mmHg 38%
13:00 +21°C° 0 mm 3 mps 730 mmHg 37%
14:00 +21°C° 0 mm 3 mps 730 mmHg 36%
15:00 +21°C° 0 mm 3 mps 730 mmHg 35%
16:00 +21°C° 0 mm 3 mps 730 mmHg 36%
17:00 +20°C° 0 mm 4 mps 730 mmHg 36%
18:00 +20°C° 0 mm 4 mps 731 mmHg 37%
19:00 +18°C° 0 mm 3 mps 731 mmHg 43%
20:00 +17°C° 0 mm 3 mps 731 mmHg 49%
21:00 +15°C° 0 mm 2 mps 731 mmHg 56%
22:00 +13°C° 0 mm 2 mps 732 mmHg 64%
23:00 +11°C° 0 mm 1 mps 732 mmHg 73%

6 July, Monday

Time Temperature Precipitation Wind Pressure Humidity
00:00 +10°C° 0 mm 1 mps 732 mmHg 81%
01:00 +9°C° 0 mm 1 mps 732 mmHg 84%
02:00 +8°C° 0 mm 1 mps 733 mmHg 87%
03:00 +8°C° 0 mm 1 mps 733 mmHg 90%
04:00 +9°C° 0 mm 1 mps 733 mmHg 83%
05:00 +11°C° 0 mm 1 mps 733 mmHg 76%
06:00 +12°C° 0 mm 1 mps 734 mmHg 69%
07:00 +14°C° 0 mm 1 mps 734 mmHg 61%
08:00 +16°C° 0 mm 1 mps 734 mmHg 53%
09:00 +19°C° 0 mm 1 mps 735 mmHg 44%
10:00 +20°C° 0 mm 1 mps 734 mmHg 40%
11:00 +21°C° 0 mm 1 mps 734 mmHg 35%
12:00 +21°C° 0 mm 2 mps 734 mmHg 31%
13:00 +21°C° 0 mm 2 mps 734 mmHg 31%
14:00 +21°C° 0 mm 2 mps 735 mmHg 31%
15:00 +21°C° 0 mm 2 mps 735 mmHg 31%
16:00 +21°C° 0 mm 2 mps 735 mmHg 32%
17:00 +21°C° 0 mm 2 mps 735 mmHg 33%
18:00 +21°C° 0 mm 2 mps 735 mmHg 33%
19:00 +19°C° 0 mm 2 mps 735 mmHg 40%
20:00 +18°C° 0 mm 2 mps 735 mmHg 46%
21:00 +16°C° 0 mm 2 mps 735 mmHg 53%
22:00 +14°C° 0 mm 2 mps 736 mmHg 57%
23:00 +12°C° 0 mm 2 mps 736 mmHg 60%

7 July, Tuesday

Time Temperature Precipitation Wind Pressure Humidity
00:00 +9°C° 0 mm 2 mps 736 mmHg 64%
01:00 +10°C° 0 mm 1 mps 736 mmHg 65%
02:00 +9°C° 0 mm 1 mps 736 mmHg 66%
03:00 +8°C° 0 mm 1 mps 737 mmHg 67%
04:00 +10°C° 0 mm 1 mps 737 mmHg 62%
05:00 +12°C° 0 mm 1 mps 737 mmHg 57%
06:00 +14°C° 0 mm 1 mps 737 mmHg 52%
07:00 +16°C° 0 mm 1 mps 737 mmHg 47%
08:00 +17°C° 0 mm 0 mps 737 mmHg 42%
09:00 +19°C° 0 mm 0 mps 737 mmHg 37%
10:00 +22°C° 0 mm 1 mps 737 mmHg 35%
11:00 +23°C° 0 mm 1 mps 737 mmHg 33%
12:00 +24°C° 0 mm 1 mps 737 mmHg 30%
13:00 +23°C° 0 mm 1 mps 737 mmHg 31%
14:00 +23°C° 0 mm 1 mps 737 mmHg 31%
15:00 +23°C° 0 mm 2 mps 737 mmHg 32%
16:00 +23°C° 0 mm 1 mps 737 mmHg 33%
17:00 +22°C° 0 mm 1 mps 737 mmHg 35%
18:00 +22°C° 0 mm 1 mps 737 mmHg 36%
19:00 +21°C° 0 mm 1 mps 737 mmHg 42%
20:00 +17°C° 0 mm 0 mps 737 mmHg 48%
21:00 +15°C° 0 mm 0 mps 737 mmHg 54%
22:00 +14°C° 0 mm 0 mps 737 mmHg 56%
23:00 +13°C° 0 mm 0 mps 737 mmHg 58%

8 July, Wednesday

Time Temperature Precipitation Wind Pressure Humidity
00:00 +12°C° 0 mm 0 mps 737 mmHg 60%
01:00 +12°C° 0 mm 0 mps 737 mmHg 61%
02:00 +12°C° 0 mm 1 mps 737 mmHg 61%
03:00 +12°C° 0 mm 1 mps 737 mmHg 61%
04:00 +13°C° 0 mm 1 mps 737 mmHg 59%
05:00 +14°C° 0 mm 1 mps 737 mmHg 56%
06:00 +16°C° 0 mm 1 mps 738 mmHg 54%
07:00 +17°C° 0 mm 2 mps 738 mmHg 49%
08:00 +19°C° 0 mm 2 mps 738 mmHg 45%
09:00 +21°C° 0 mm 3 mps 738 mmHg 40%
10:00 +22°C° 0 mm 3 mps 737 mmHg 38%
11:00 +22°C° 0 mm 3 mps 737 mmHg 36%
12:00 +24°C° 0 mm 3 mps 736 mmHg 34%
13:00 +24°C° 0 mm 3 mps 736 mmHg 33%
14:00 +25°C° 0 mm 3 mps 736 mmHg 33%
15:00 +25°C° 0 mm 4 mps 735 mmHg 32%
16:00 +25°C° 0 mm 3 mps 735 mmHg 33%
17:00 +25°C° 0 mm 3 mps 735 mmHg 35%
18:00 +24°C° 0 mm 3 mps 735 mmHg 36%
19:00 +22°C° 0 mm 3 mps 735 mmHg 43%
20:00 +20°C° 0 mm 3 mps 735 mmHg 50%
21:00 +19°C° 0 mm 2 mps 735 mmHg 57%
22:00 +18°C° 0 mm 2 mps 735 mmHg 58%
23:00 +17°C° 0 mm 2 mps 734 mmHg 59%
Show more